Weather History for Dillon, MT

Change the Weather History Date:

Tuesday, March 12, 2013

  Actual Average Record
Temperature  
Mean Temperature 38 °F 34 °F  
Max Temperature 54 °F 45 °F 68 °F (2007)
Min Temperature 22 °F 22 °F -11 °F (1950)
Degree Days  
Heating Degree Days 27    
Month to date heating degree days 378  
Since 1 July heating degree days 5793  
Cooling Degree Days 0    
Month to date cooling degree days 0  
Year to date cooling degree days 0  
Moisture  
Dew Point 18 °F    
Average Humidity 51    
Maximum Humidity 69    
Minimum Humidity 32    
Precipitation  
Precipitation 0.00 in 0.01 in 0.26 in (1957)
Month to date precipitation 0.07 0.16  
Year to date precipitation 0.33 0.68  
Snow  
Snow 0.00 in - - ()
Snow Depth 0.00 in    
Sea Level Pressure  
Sea Level Pressure 30.18 in    
Wind  
Wind Speed 10 mph (SW)    
Max Wind Speed 21 mph    
Max Gust Speed 27 mph    
Visibility 10 miles    
Events      
T = Trace of Precipitation, MM = Missing Value Source: NWS Daily Summary

Daily Weather History Graph

Daily Weather History Graph

Search for Another Location

Airport:

Trip Planner

Search our weather history database for the weather conditions in past years. The results will help you decide how hot, cold, wet, or windy it might be!

Date:

Astronomy

Mar. 12, 2013 Rise Set
Actual Time 7:47 AM MDT 7:32 PM MDT
Civil Twilight 7:18 AM MDT 8:02 PM MDT
Nautical Twilight 6:44 AM MDT 8:36 PM MDT
Astronomical Twilight 6:09 AM MDT 9:11 PM MDT
Moon 7:51 AM MDT (3/12) 8:57 PM MDT (3/12)
Length of Visible Light 12h 43m
Length of Day
11h 44m
New Moon, 1% of the Moon is Illuminated
Mar 12
New Moon
Mar 19
First Quarter
Mar 27
Full
Apr 2
Last Quarter
Apr 10
New

Hourly Weather History & Observations

Time (MDT) Temp. Windchill Dew Point Humidity Pressure Visibility Wind Dir Wind Speed Gust Speed Precip Events Conditions
12:53 AM 24.1 °F - 10.9 °F 57% 30.23 in 10.0 mi Calm Calm - N/A   Clear
1:53 AM 26.1 °F 18.4 °F 12.0 °F 55% 30.22 in 10.0 mi SSW 6.9 mph - N/A   Clear
2:53 AM 26.1 °F 16.2 °F 10.9 °F 53% 30.22 in 10.0 mi SSW 10.4 mph - N/A   Clear
3:53 AM 21.9 °F 13.4 °F 12.0 °F 66% 30.23 in 10.0 mi SW 6.9 mph - N/A   Overcast
4:53 AM 25.0 °F 18.1 °F 14.0 °F 63% 30.22 in 10.0 mi WSW 5.8 mph - N/A   Overcast
5:53 AM 25.0 °F 18.1 °F 15.1 °F 66% 30.22 in 10.0 mi WSW 5.8 mph - N/A   Overcast
6:53 AM 28.0 °F 20.8 °F 14.0 °F 56% 30.22 in 10.0 mi SSW 6.9 mph - N/A   Overcast
7:53 AM 28.9 °F 19.8 °F 15.1 °F 56% 30.22 in 10.0 mi SSW 10.4 mph - N/A   Overcast
8:53 AM 30.9 °F 22.8 °F 15.1 °F 52% 30.23 in 10.0 mi SW 9.2 mph - N/A   Overcast
9:53 AM 28.0 °F 24.2 °F 19.0 °F 69% 30.27 in 10.0 mi West 3.5 mph - N/A   Overcast
10:53 AM 36.0 °F 30.3 °F 15.1 °F 43% 30.22 in 10.0 mi SSW 6.9 mph - N/A   Overcast
11:53 AM 42.1 °F 38.4 °F 18.0 °F 38% 30.19 in 10.0 mi SSE 5.8 mph - N/A   Overcast
12:53 PM 46.0 °F 39.6 °F 23.0 °F 40% 30.18 in 10.0 mi SW 15.0 mph - N/A   Mostly Cloudy
1:53 PM 48.9 °F - 24.1 °F 38% 30.14 in 10.0 mi SSW 18.4 mph 26.5 mph N/A   Mostly Cloudy
2:53 PM 51.1 °F - 25.0 °F 36% 30.11 in 10.0 mi SW 20.7 mph 25.3 mph N/A   Overcast
3:53 PM 52.0 °F - 24.1 °F 34% 30.10 in 10.0 mi SSW 15.0 mph - N/A   Mostly Cloudy
4:53 PM 53.1 °F - 24.1 °F 32% 30.07 in 10.0 mi WSW 16.1 mph - N/A   Partly Cloudy
5:53 PM 51.1 °F - 24.1 °F 35% 30.09 in 10.0 mi SSW 19.6 mph - N/A   Clear
6:53 PM 48.9 °F - 24.1 °F 38% 30.09 in 10.0 mi South 11.5 mph - N/A   Mostly Cloudy
7:53 PM 46.9 °F - 24.1 °F 41% 30.11 in 10.0 mi SSW 12.7 mph - N/A   Overcast